Time,TemperatureF,DewpointF,PressureIn,WindDirection,WindDirectionDegrees,WindSpeedMPH,WindSpeedGustMPH,Humidity,HourlyPrecipIn,Conditions,Clouds,dailyrainin,SolarRadiationWatts/m^2,SoftwareType,DateUTC
2013-02-05 00:03:00,42.9,37.5,29.70,WNW,286,1.0,10.0,81,0.01,,,0.00,0.0,WUHU216DAVISVP2,2013-02-05 00:03:00,
2013-02-05 00:08:00,42.9,37.5,29.70,WSW,237,2.0,10.0,81,0.01,,,0.00,0.0,WUHU216DAVISVP2,2013-02-05 00:08:00,
2013-02-05 00:13:00,42.9,37.5,29.70,WNW,285,5.0,6.0,81,0.01,,,0.00,0.0,WUHU216DAVISVP2,2013-02-05 00:13:00,
2013-02-05 00:18:00,42.9,37.5,29.69,WNW,297,4.0,6.0,81,0.00,,,0.00,0.0,WUHU216DAVISVP2,2013-02-05 00:18:00,
2013-02-05 00:23:00,42.9,37.5,29.68,NE,48,2.0,8.0,81,0.00,,,0.00,0.0,WUHU216DAVISVP2,2013-02-05 00:23:00,
2013-02-05 00:28:00,42.9,37.5,29.67,West,277,3.0,13.0,81,0.00,,,0.00,0.0,WUHU216DAVISVP2,2013-02-05 00:28:00,
2013-02-05 00:33:00,42.9,37.5,29.67,NNW,328,4.0,13.0,81,0.00,,,0.00,0.0,WUHU216DAVISVP2,2013-02-05 00:33:00,
2013-02-05 00:38:00,42.9,37.5,29.68,SSW,205,5.0,13.0,81,0.00,,,0.00,0.0,WUHU216DAVISVP2,2013-02-05 00:38:00,
2013-02-05 00:43:00,42.6,37.2,29.67,ENE,58,5.0,15.0,81,0.00,,,0.00,0.0,WUHU216DAVISVP2,2013-02-05 00:43:00,
2013-02-05 00:48:00,42.2,37.4,29.68,North,5,5.0,15.0,83,0.00,,,0.00,0.0,WUHU216DAVISVP2,2013-02-05 00:48:00,
2013-02-05 00:53:00,41.7,37.8,29.67,NW,324,5.0,15.0,86,0.00,,,0.00,0.0,WUHU216DAVISVP2,2013-02-05 00:53:00,
2013-02-05 00:58:00,41.3,37.7,29.68,WNW,290,6.0,11.0,87,0.00,,,0.00,0.0,WUHU216DAVISVP2,2013-02-05 00:58:00,
2013-02-05 01:03:00,41.2,37.6,29.69,SW,221,4.0,18.0,87,0.02,,,0.02,0.0,WUHU216DAVISVP2,2013-02-05 01:03:00,
2013-02-05 01:08:00,40.6,37.0,29.69,SSW,202,1.0,19.0,87,0.04,,,0.04,0.0,WUHU216DAVISVP2,2013-02-05 01:08:00,
2013-02-05 01:13:00,39.9,36.6,29.69,South,180,3.0,19.0,88,0.05,,,0.05,0.0,WUHU216DAVISVP2,2013-02-05 01:13:00,
2013-02-05 01:18:00,39.1,35.8,29.69,NNW,331,6.0,19.0,88,0.06,,,0.06,0.0,WUHU216DAVISVP2,2013-02-05 01:18:00,
2013-02-05 01:23:00,38.5,35.5,29.68,SSE,163,4.0,18.0,89,0.07,,,0.07,0.0,WUHU216DAVISVP2,2013-02-05 01:23:00,
2013-02-05 01:28:00,38.2,35.5,29.67,South,190,0.0,14.0,90,0.07,,,0.07,0.0,WUHU216DAVISVP2,2013-02-05 01:28:00,
2013-02-05 01:33:00,38.1,35.4,29.67,SSW,210,1.0,14.0,90,0.07,,,0.07,0.0,WUHU216DAVISVP2,2013-02-05 01:33:00,
2013-02-05 01:38:00,38.0,35.6,29.67,West,271,1.0,9.0,91,0.07,,,0.07,0.0,WUHU216DAVISVP2,2013-02-05 01:38:00,
2013-02-05 01:43:00,38.0,35.6,29.67,SSW,211,1.0,9.0,91,0.07,,,0.07,0.0,WUHU216DAVISVP2,2013-02-05 01:43:00,
2013-02-05 01:48:00,38.0,35.6,29.67,WNW,291,0.0,7.0,91,0.07,,,0.07,0.0,WUHU216DAVISVP2,2013-02-05 01:48:00,
2013-02-05 01:53:00,38.1,35.7,29.67,WSW,252,2.0,7.0,91,0.07,,,0.07,0.0,WUHU216DAVISVP2,2013-02-05 01:53:00,
2013-02-05 01:58:00,38.2,35.8,29.67,North,349,4.0,7.0,91,0.07,,,0.07,0.0,WUHU216DAVISVP2,2013-02-05 01:58:00,
2013-02-05 02:03:00,38.2,35.8,29.67,NW,323,0.0,7.0,91,0.05,,,0.07,0.0,WUHU216DAVISVP2,2013-02-05 02:03:00,
2013-02-05 02:08:00,38.3,35.9,29.67,West,277,0.0,7.0,91,0.03,,,0.07,0.0,WUHU216DAVISVP2,2013-02-05 02:08:00,
2013-02-05 02:13:00,38.4,36.0,29.66,NW,326,0.0,7.0,91,0.02,,,0.07,0.0,WUHU216DAVISVP2,2013-02-05 02:13:00,
2013-02-05 02:18:00,38.4,35.7,29.66,NNW,333,6.0,7.0,90,0.01,,,0.07,0.0,WUHU216DAVISVP2,2013-02-05 02:18:00,
2013-02-05 02:23:00,38.3,35.6,29.67,South,188,1.0,8.0,90,0.00,,,0.07,0.0,WUHU216DAVISVP2,2013-02-05 02:23:00,
2013-02-05 02:28:00,38.2,35.5,29.67,West,279,0.0,9.0,90,0.00,,,0.07,0.0,WUHU216DAVISVP2,2013-02-05 02:28:00,
2013-02-05 02:33:00,38.1,35.4,29.67,NW,308,4.0,9.0,90,0.00,,,0.07,0.0,WUHU216DAVISVP2,2013-02-05 02:33:00,
2013-02-05 02:38:00,37.9,35.2,29.67,NW,307,1.0,9.0,90,0.00,,,0.07,0.0,WUHU216DAVISVP2,2013-02-05 02:38:00,
2013-02-05 02:43:00,37.8,34.8,29.65,NW,309,3.0,9.0,89,0.00,,,0.07,0.0,WUHU216DAVISVP2,2013-02-05 02:43:00,
2013-02-05 02:48:00,37.6,34.9,29.64,NW,306,0.0,7.0,90,0.00,,,0.07,0.0,WUHU216DAVISVP2,2013-02-05 02:48:00,
2013-02-05 02:53:00,37.5,34.8,29.65,NW,304,2.0,7.0,90,0.00,,,0.07,0.0,WUHU216DAVISVP2,2013-02-05 02:53:00,
2013-02-05 02:58:00,37.3,34.6,29.65,NW,321,0.0,6.0,90,0.00,,,0.07,0.0,WUHU216DAVISVP2,2013-02-05 02:58:00,
2013-02-05 03:03:00,37.2,34.5,29.64,WSW,239,3.0,6.0,90,0.00,,,0.07,0.0,WUHU216DAVISVP2,2013-02-05 03:03:00,
2013-02-05 03:08:00,37.0,34.3,29.64,NNW,341,2.0,7.0,90,0.00,,,0.07,0.0,WUHU216DAVISVP2,2013-02-05 03:08:00,
2013-02-05 03:13:00,36.9,34.2,29.64,SSW,207,2.0,7.0,90,0.00,,,0.07,0.0,WUHU216DAVISVP2,2013-02-05 03:13:00,
2013-02-05 03:18:00,36.8,34.1,29.64,North,355,0.0,7.0,90,0.00,,,0.07,0.0,WUHU216DAVISVP2,2013-02-05 03:18:00,
2013-02-05 03:23:00,36.8,34.1,29.64,WNW,297,4.0,5.0,90,0.00,,,0.07,0.0,WUHU216DAVISVP2,2013-02-05 03:23:00,
2013-02-05 03:28:00,36.8,33.8,29.63,South,185,5.0,7.0,89,0.00,,,0.07,0.0,WUHU216DAVISVP2,2013-02-05 03:28:00,
2013-02-05 03:33:00,37.0,33.5,29.63,NW,304,1.0,9.0,87,0.00,,,0.07,0.0,WUHU216DAVISVP2,2013-02-05 03:33:00,
2013-02-05 03:38:00,37.2,33.4,29.63,SW,219,0.0,9.0,86,0.00,,,0.07,0.0,WUHU216DAVISVP2,2013-02-05 03:38:00,
2013-02-05 03:43:00,37.1,33.3,29.63,SSW,211,0.0,9.0,86,0.00,,,0.07,0.0,WUHU216DAVISVP2,2013-02-05 03:43:00,
2013-02-05 03:48:00,36.9,33.1,29.63,West,275,0.0,9.0,86,0.00,,,0.07,0.0,WUHU216DAVISVP2,2013-02-05 03:48:00,
2013-02-05 03:53:00,36.8,33.3,29.62,West,275,0.0,6.0,87,0.00,,,0.07,0.0,WUHU216DAVISVP2,2013-02-05 03:53:00,
2013-02-05 03:58:00,36.6,33.1,29.62,NE,53,1.0,5.0,87,0.00,,,0.07,0.0,WUHU216DAVISVP2,2013-02-05 03:58:00,
2013-02-05 04:03:00,36.6,33.1,29.62,WSW,256,2.0,5.0,87,0.00,,,0.07,0.0,WUHU216DAVISVP2,2013-02-05 04:03:00,
2013-02-05 04:08:00,36.5,33.0,29.62,West,272,7.0,7.0,87,0.00,,,0.07,0.0,WUHU216DAVISVP2,2013-02-05 04:08:00,
2013-02-05 04:13:00,36.5,32.7,29.62,NW,310,0.0,7.0,86,0.00,,,0.07,0.0,WUHU216DAVISVP2,2013-02-05 04:13:00,
2013-02-05 04:18:00,36.5,32.1,29.62,WSW,247,2.0,7.0,84,0.00,,,0.07,0.0,WUHU216DAVISVP2,2013-02-05 04:18:00,
2013-02-05 04:23:00,36.7,32.0,29.62,SSW,192,5.0,8.0,83,0.00,,,0.07,0.0,WUHU216DAVISVP2,2013-02-05 04:23:00,
2013-02-05 04:28:00,36.5,31.5,29.62,SW,226,5.0,8.0,82,0.00,,,0.07,0.0,WUHU216DAVISVP2,2013-02-05 04:28:00,
2013-02-05 04:33:00,36.5,31.5,29.61,SSW,200,2.0,8.0,82,0.00,,,0.07,0.0,WUHU216DAVISVP2,2013-02-05 04:33:00,
2013-02-05 04:38:00,36.5,31.2,29.61,WSW,241,4.0,9.0,81,0.00,,,0.07,0.0,WUHU216DAVISVP2,2013-02-05 04:38:00,
2013-02-05 04:43:00,36.4,30.8,29.61,WSW,252,1.0,11.0,80,0.00,,,0.07,0.0,WUHU216DAVISVP2,2013-02-05 04:43:00,
2013-02-05 04:48:00,36.4,30.5,29.61,WSW,244,6.0,11.0,79,0.00,,,0.07,0.0,WUHU216DAVISVP2,2013-02-05 04:48:00,
2013-02-05 04:53:00,36.5,30.3,29.61,North,355,2.0,11.0,78,0.00,,,0.07,0.0,WUHU216DAVISVP2,2013-02-05 04:53:00,
2013-02-05 04:58:00,36.4,30.2,29.61,NNE,13,2.0,11.0,78,0.00,,,0.07,0.0,WUHU216DAVISVP2,2013-02-05 04:58:00,
2013-02-05 05:00:00,36.4,30.2,29.61,West,278,0.0,9.0,78,0.00,,,0.07,0.0,WUHU216DAVISVP2,2013-02-05 05:00:00,
2013-02-05 05:05:00,36.4,30.2,29.61,SE,141,1.0,9.0,78,0.00,,,0.07,0.0,WUHU216DAVISVP2,2013-02-05 05:05:00,
2013-02-05 05:10:00,36.4,30.5,29.61,North,355,2.0,9.0,79,0.00,,,0.07,0.0,WUHU216DAVISVP2,2013-02-05 05:10:00,
2013-02-05 05:15:00,36.2,30.6,29.61,NNW,335,0.0,8.0,80,0.00,,,0.07,0.0,WUHU216DAVISVP2,2013-02-05 05:15:00,
2013-02-05 05:20:00,36.0,31.0,29.61,NNW,342,0.0,7.0,82,0.00,,,0.07,0.0,WUHU216DAVISVP2,2013-02-05 05:20:00,
2013-02-05 05:25:00,35.8,30.8,29.61,North,360,1.0,6.0,82,0.00,,,0.07,0.0,WUHU216DAVISVP2,2013-02-05 05:25:00,
2013-02-05 05:30:00,35.7,30.7,29.61,WNW,299,1.0,6.0,82,0.00,,,0.07,0.0,WUHU216DAVISVP2,2013-02-05 05:30:00,
2013-02-05 05:35:00,35.7,30.4,29.61,WNW,282,1.0,8.0,81,0.00,,,0.07,0.0,WUHU216DAVISVP2,2013-02-05 05:35:00,
2013-02-05 05:40:00,35.7,30.4,29.61,North,350,1.0,8.0,81,0.00,,,0.07,0.0,WUHU216DAVISVP2,2013-02-05 05:40:00,
2013-02-05 05:45:00,35.7,30.4,29.61,SW,223,2.0,8.0,81,0.00,,,0.07,0.0,WUHU216DAVISVP2,2013-02-05 05:45:00,
2013-02-05 05:50:00,35.5,29.9,29.61,NW,326,6.0,8.0,80,0.00,,,0.07,0.0,WUHU216DAVISVP2,2013-02-05 05:50:00,
2013-02-05 05:55:00,35.5,29.9,29.61,NW,306,2.0,7.0,80,0.00,,,0.07,0.0,WUHU216DAVISVP2,2013-02-05 05:55:00,
2013-02-05 06:00:00,35.4,29.8,29.61,WNW,294,1.0,7.0,80,0.00,,,0.07,0.0,WUHU216DAVISVP2,2013-02-05 06:00:00,
2013-02-05 06:05:00,35.3,29.8,29.61,NNW,328,2.0,7.0,80,0.00,,,0.07,0.0,WUHU216DAVISVP2,2013-02-05 06:05:00,
2013-02-05 06:10:00,35.1,29.6,29.60,WNW,298,3.0,7.0,80,0.00,,,0.07,0.0,WUHU216DAVISVP2,2013-02-05 06:10:00,
2013-02-05 06:15:00,35.0,29.5,29.60,NW,314,0.0,6.0,80,0.00,,,0.07,0.0,WUHU216DAVISVP2,2013-02-05 06:15:00,
2013-02-05 06:20:00,35.0,29.5,29.60,NNW,336,1.0,6.0,80,0.00,,,0.07,0.0,WUHU216DAVISVP2,2013-02-05 06:20:00,
2013-02-05 06:25:00,34.9,29.4,29.60,West,278,1.0,6.0,80,0.00,,,0.07,0.0,WUHU216DAVISVP2,2013-02-05 06:25:00,
2013-02-05 06:30:00,34.8,29.6,29.60,West,261,0.0,7.0,81,0.00,,,0.07,0.0,WUHU216DAVISVP2,2013-02-05 06:30:00,
2013-02-05 06:35:00,34.8,29.6,29.60,WSW,242,1.0,7.0,81,0.00,,,0.07,0.0,WUHU216DAVISVP2,2013-02-05 06:35:00,
2013-02-05 06:40:00,34.7,29.5,29.60,North,11,0.0,7.0,81,0.00,,,0.07,0.0,WUHU216DAVISVP2,2013-02-05 06:40:00,
2013-02-05 06:45:00,34.7,29.5,29.60,SW,233,0.0,6.0,81,0.00,,,0.07,0.0,WUHU216DAVISVP2,2013-02-05 06:45:00,
2013-02-05 06:50:00,34.6,29.4,29.60,WSW,237,0.0,6.0,81,0.00,,,0.07,0.0,WUHU216DAVISVP2,2013-02-05 06:50:00,
2013-02-05 06:55:00,34.6,29.4,29.60,WSW,256,0.0,6.0,81,0.00,,,0.07,0.0,WUHU216DAVISVP2,2013-02-05 06:55:00,
2013-02-05 07:00:00,34.6,29.4,29.60,NW,313,1.0,6.0,81,0.00,,,0.07,0.0,WUHU216DAVISVP2,2013-02-05 07:00:00,
2013-02-05 07:05:00,34.6,29.4,29.60,WSW,245,1.0,4.0,81,0.00,,,0.07,0.0,WUHU216DAVISVP2,2013-02-05 07:05:00,
2013-02-05 07:10:00,34.6,29.4,29.60,WNW,299,2.0,5.0,81,0.00,,,0.07,0.0,WUHU216DAVISVP2,2013-02-05 07:10:00,
2013-02-05 07:15:00,34.6,29.4,29.60,NNW,342,0.0,5.0,81,0.00,,,0.07,0.0,WUHU216DAVISVP2,2013-02-05 07:15:00,
2013-02-05 07:20:00,34.7,29.2,29.59,SW,223,0.0,5.0,80,0.00,,,0.07,0.0,WUHU216DAVISVP2,2013-02-05 07:20:00,
2013-02-05 07:25:00,34.7,29.2,29.59,SW,215,0.0,8.0,80,0.00,,,0.07,0.0,WUHU216DAVISVP2,2013-02-05 07:25:00,
2013-02-05 07:30:00,34.6,29.4,29.59,West,267,0.0,8.0,81,0.00,,,0.07,0.0,WUHU216DAVISVP2,2013-02-05 07:30:00,
2013-02-05 07:35:00,34.6,29.1,29.59,SW,236,5.0,8.0,80,0.00,,,0.07,0.0,WUHU216DAVISVP2,2013-02-05 07:35:00,
2013-02-05 07:40:00,34.6,29.4,29.59,SW,232,0.0,8.0,81,0.00,,,0.07,0.0,WUHU216DAVISVP2,2013-02-05 07:40:00,
2013-02-05 07:45:00,34.7,29.2,29.59,WNW,301,0.0,7.0,80,0.00,,,0.07,9.0,WUHU216DAVISVP2,2013-02-05 07:45:00,
2013-02-05 07:50:00,34.8,29.3,29.59,NW,314,0.0,7.0,80,0.00,,,0.07,12.0,WUHU216DAVISVP2,2013-02-05 07:50:00,
2013-02-05 07:55:00,34.8,29.3,29.59,NNW,327,0.0,7.0,80,0.00,,,0.07,11.0,WUHU216DAVISVP2,2013-02-05 07:55:00,
2013-02-05 08:00:00,34.8,29.3,29.59,NNW,341,0.0,7.0,80,0.00,,,0.07,16.0,WUHU216DAVISVP2,2013-02-05 08:00:00,
2013-02-05 08:05:00,34.9,29.4,29.59,North,5,0.0,7.0,80,0.00,,,0.07,16.0,WUHU216DAVISVP2,2013-02-05 08:05:00,
2013-02-05 08:10:00,34.9,29.7,29.59,WSW,242,2.0,6.0,81,0.00,,,0.07,16.0,WUHU216DAVISVP2,2013-02-05 08:10:00,
2013-02-05 08:15:00,35.0,29.5,29.59,NNW,327,0.0,6.0,80,0.00,,,0.07,14.0,WUHU216DAVISVP2,2013-02-05 08:15:00,
2013-02-05 08:20:00,35.0,29.5,29.59,WSW,252,1.0,7.0,80,0.00,,,0.07,18.0,WUHU216DAVISVP2,2013-02-05 08:20:00,
2013-02-05 08:25:00,35.1,29.6,29.59,SW,221,1.0,7.0,80,0.00,,,0.07,25.0,WUHU216DAVISVP2,2013-02-05 08:25:00,
2013-02-05 08:30:00,35.1,29.6,29.59,SW,224,2.0,7.0,80,0.00,,,0.07,23.0,WUHU216DAVISVP2,2013-02-05 08:30:00,
2013-02-05 08:35:00,35.3,29.8,29.59,North,5,4.0,6.0,80,0.00,,,0.07,19.0,WUHU216DAVISVP2,2013-02-05 08:35:00,
2013-02-05 08:40:00,35.4,29.9,29.59,NW,310,1.0,6.0,80,0.00,,,0.07,32.0,WUHU216DAVISVP2,2013-02-05 08:40:00,
2013-02-05 08:45:00,35.7,30.1,29.58,NW,309,1.0,6.0,80,0.00,,,0.07,35.0,WUHU216DAVISVP2,2013-02-05 08:45:00,
2013-02-05 08:50:00,35.8,29.9,29.59,North,355,0.0,6.0,79,0.00,,,0.07,33.0,WUHU216DAVISVP2,2013-02-05 08:50:00,
2013-02-05 08:55:00,36.0,30.1,29.58,WNW,300,0.0,6.0,79,0.00,,,0.07,18.0,WUHU216DAVISVP2,2013-02-05 08:55:00,
2013-02-05 09:00:00,36.0,30.1,29.58,WSW,239,0.0,7.0,79,0.00,,,0.07,19.0,WUHU216DAVISVP2,2013-02-05 09:00:00,
2013-02-05 09:05:00,36.0,30.1,29.58,SSE,155,7.0,7.0,79,0.00,,,0.07,33.0,WUHU216DAVISVP2,2013-02-05 09:05:00,
2013-02-05 09:10:00,36.1,29.9,29.58,West,265,4.0,7.0,78,0.00,,,0.07,76.0,WUHU216DAVISVP2,2013-02-05 09:10:00,
2013-02-05 09:15:00,36.3,30.1,29.58,NW,304,0.0,7.0,78,0.00,,,0.07,37.0,WUHU216DAVISVP2,2013-02-05 09:15:00,
2013-02-05 09:20:00,36.6,30.4,29.57,WNW,299,4.0,8.0,78,0.00,,,0.07,74.0,WUHU216DAVISVP2,2013-02-05 09:20:00,
2013-02-05 09:25:00,36.8,30.6,29.57,WSW,239,7.0,8.0,78,0.00,,,0.07,56.0,WUHU216DAVISVP2,2013-02-05 09:25:00,
2013-02-05 09:30:00,37.0,30.5,29.57,NW,312,2.0,8.0,77,0.00,,,0.07,25.0,WUHU216DAVISVP2,2013-02-05 09:30:00,
2013-02-05 09:35:00,37.0,30.5,29.57,SW,235,0.0,10.0,77,0.00,,,0.07,30.0,WUHU216DAVISVP2,2013-02-05 09:35:00,
2013-02-05 09:40:00,37.1,30.6,29.57,WSW,248,0.0,10.0,77,0.00,,,0.07,47.0,WUHU216DAVISVP2,2013-02-05 09:40:00,
2013-02-05 09:45:00,37.3,30.8,29.57,NW,315,4.0,10.0,77,0.00,,,0.07,51.0,WUHU216DAVISVP2,2013-02-05 09:45:00,
2013-02-05 09:50:00,37.5,30.7,29.56,WSW,255,0.0,10.0,76,0.00,,,0.07,47.0,WUHU216DAVISVP2,2013-02-05 09:50:00,
2013-02-05 09:55:00,37.7,30.5,29.57,NW,309,2.0,8.0,75,0.00,,,0.07,42.0,WUHU216DAVISVP2,2013-02-05 09:55:00,
2013-02-05 10:00:00,37.7,30.5,29.57,NW,323,1.0,8.0,75,0.00,,,0.07,58.0,WUHU216DAVISVP2,2013-02-05 10:00:00,
2013-02-05 10:05:00,37.8,30.3,29.57,West,269,1.0,11.0,74,0.00,,,0.07,91.0,WUHU216DAVISVP2,2013-02-05 10:05:00,
2013-02-05 10:10:00,38.0,30.4,29.57,NNW,344,1.0,11.0,74,0.00,,,0.07,77.0,WUHU216DAVISVP2,2013-02-05 10:10:00,
2013-02-05 10:15:00,38.4,30.9,29.57,NW,326,4.0,11.0,74,0.00,,,0.07,81.0,WUHU216DAVISVP2,2013-02-05 10:15:00,
2013-02-05 10:20:00,38.6,30.4,29.57,NNW,336,1.0,11.0,72,0.00,,,0.07,109.0,WUHU216DAVISVP2,2013-02-05 10:20:00,
2013-02-05 10:25:00,38.7,30.5,29.57,West,260,4.0,11.0,72,0.00,,,0.07,200.0,WUHU216DAVISVP2,2013-02-05 10:25:00,
2013-02-05 10:30:00,38.9,30.4,29.57,WSW,255,0.0,11.0,71,0.00,,,0.07,121.0,WUHU216DAVISVP2,2013-02-05 10:30:00,
2013-02-05 10:35:00,38.9,30.0,29.56,West,265,2.0,11.0,70,0.00,,,0.07,105.0,WUHU216DAVISVP2,2013-02-05 10:35:00,
2013-02-05 10:40:00,39.2,30.7,29.56,SSE,161,6.0,11.0,71,0.00,,,0.07,169.0,WUHU216DAVISVP2,2013-02-05 10:40:00,
2013-02-05 10:45:00,39.4,30.5,29.56,SW,218,1.0,9.0,70,0.00,,,0.07,107.0,WUHU216DAVISVP2,2013-02-05 10:45:00,
2013-02-05 10:50:00,39.6,30.3,29.56,South,183,6.0,10.0,69,0.00,,,0.07,86.0,WUHU216DAVISVP2,2013-02-05 10:50:00,
2013-02-05 10:55:00,39.6,30.0,29.55,WNW,290,1.0,12.0,68,0.00,,,0.07,306.0,WUHU216DAVISVP2,2013-02-05 10:55:00,
2013-02-05 11:00:00,39.8,30.2,29.56,WSW,252,6.0,12.0,68,0.00,,,0.07,102.0,WUHU216DAVISVP2,2013-02-05 11:00:00,
2013-02-05 11:05:00,40.1,30.8,29.55,NW,306,5.0,12.0,69,0.00,,,0.07,135.0,WUHU216DAVISVP2,2013-02-05 11:05:00,
2013-02-05 11:10:00,40.4,30.4,29.55,SSE,159,6.0,12.0,67,0.00,,,0.07,84.0,WUHU216DAVISVP2,2013-02-05 11:10:00,
2013-02-05 11:15:00,40.0,30.0,29.55,West,262,2.0,11.0,67,0.00,,,0.07,107.0,WUHU216DAVISVP2,2013-02-05 11:15:00,
2013-02-05 11:20:00,39.6,29.6,29.55,South,188,2.0,11.0,67,0.00,,,0.07,98.0,WUHU216DAVISVP2,2013-02-05 11:20:00,
2013-02-05 11:25:00,39.5,29.9,29.55,SW,223,0.0,11.0,68,0.00,,,0.07,113.0,WUHU216DAVISVP2,2013-02-05 11:25:00,
2013-02-05 11:30:00,39.6,30.0,29.54,West,281,5.0,11.0,68,0.00,,,0.07,151.0,WUHU216DAVISVP2,2013-02-05 11:30:00,
2013-02-05 11:35:00,39.6,29.6,29.54,South,169,3.0,11.0,67,0.00,,,0.07,100.0,WUHU216DAVISVP2,2013-02-05 11:35:00,
2013-02-05 11:40:00,39.4,29.1,29.54,West,263,2.0,12.0,66,0.00,,,0.07,362.0,WUHU216DAVISVP2,2013-02-05 11:40:00,
2013-02-05 11:45:00,39.9,29.5,29.54,WSW,246,5.0,12.0,66,0.00,,,0.07,450.0,WUHU216DAVISVP2,2013-02-05 11:45:00,
2013-02-05 11:50:00,40.7,29.9,29.54,WSW,256,0.0,14.0,65,0.00,,,0.07,522.0,WUHU216DAVISVP2,2013-02-05 11:50:00,
2013-02-05 11:55:00,41.0,29.7,29.54,SW,232,4.0,14.0,64,0.00,,,0.07,153.0,WUHU216DAVISVP2,2013-02-05 11:55:00,
2013-02-05 12:00:00,41.6,31.1,29.54,South,177,6.0,14.0,66,0.00,,,0.07,487.0,WUHU216DAVISVP2,2013-02-05 12:00:00,
2013-02-05 12:05:00,42.1,30.4,29.54,West,263,5.0,14.0,63,0.00,,,0.07,457.0,WUHU216DAVISVP2,2013-02-05 12:05:00,
2013-02-05 12:10:00,42.6,30.2,29.53,SSW,205,0.0,10.0,61,0.00,,,0.07,450.0,WUHU216DAVISVP2,2013-02-05 12:10:00,
2013-02-05 12:15:00,43.1,30.6,29.53,NNE,26,6.0,11.0,61,0.00,,,0.07,427.0,WUHU216DAVISVP2,2013-02-05 12:15:00,
2013-02-05 12:20:00,43.4,30.5,29.53,West,264,5.0,12.0,60,0.00,,,0.07,439.0,WUHU216DAVISVP2,2013-02-05 12:20:00,
2013-02-05 12:25:00,43.0,29.7,29.53,NNW,344,5.0,13.0,59,0.00,,,0.07,434.0,WUHU216DAVISVP2,2013-02-05 12:25:00,
2013-02-05 12:30:00,42.7,29.8,29.52,West,281,1.0,13.0,60,0.00,,,0.07,141.0,WUHU216DAVISVP2,2013-02-05 12:30:00,
2013-02-05 12:35:00,42.7,30.3,29.52,SW,222,5.0,13.0,61,0.00,,,0.07,156.0,WUHU216DAVISVP2,2013-02-05 12:35:00,
2013-02-05 12:40:00,43.0,30.5,29.52,South,186,4.0,13.0,61,0.00,,,0.07,156.0,WUHU216DAVISVP2,2013-02-05 12:40:00,
2013-02-05 12:45:00,42.8,29.5,29.52,SSW,211,6.0,11.0,59,0.00,,,0.07,483.0,WUHU216DAVISVP2,2013-02-05 12:45:00,
2013-02-05 12:50:00,42.3,29.0,29.52,WNW,298,5.0,11.0,59,0.00,,,0.07,311.0,WUHU216DAVISVP2,2013-02-05 12:50:00,
2013-02-05 12:55:00,41.7,28.8,29.52,SSE,159,6.0,12.0,60,0.00,,,0.07,86.0,WUHU216DAVISVP2,2013-02-05 12:55:00,
2013-02-05 13:00:00,41.2,28.4,29.52,SW,227,2.0,12.0,60,0.00,,,0.07,98.0,WUHU216DAVISVP2,2013-02-05 13:00:00,
2013-02-05 13:05:00,41.0,28.6,29.52,South,187,5.0,12.0,61,0.00,,,0.07,47.0,WUHU216DAVISVP2,2013-02-05 13:05:00,
2013-02-05 13:10:00,40.7,28.0,29.52,West,275,0.0,12.0,60,0.00,,,0.07,56.0,WUHU216DAVISVP2,2013-02-05 13:10:00,
2013-02-05 13:15:00,40.5,28.6,29.52,NE,48,2.0,12.0,62,0.00,,,0.07,357.0,WUHU216DAVISVP2,2013-02-05 13:15:00,
2013-02-05 13:20:00,40.9,28.6,29.51,SSW,202,1.0,12.0,61,0.00,,,0.07,146.0,WUHU216DAVISVP2,2013-02-05 13:20:00,
2013-02-05 13:25:00,41.4,29.4,29.51,SW,232,0.0,12.0,62,0.00,,,0.07,445.0,WUHU216DAVISVP2,2013-02-05 13:25:00,
2013-02-05 13:30:00,42.6,29.3,29.50,SW,218,1.0,11.0,59,0.00,,,0.07,438.0,WUHU216DAVISVP2,2013-02-05 13:30:00,
2013-02-05 13:35:00,43.9,30.1,29.50,NNW,329,8.0,11.0,58,0.00,,,0.07,387.0,WUHU216DAVISVP2,2013-02-05 13:35:00,
2013-02-05 13:40:00,43.8,29.1,29.50,West,271,5.0,11.0,56,0.00,,,0.07,91.0,WUHU216DAVISVP2,2013-02-05 13:40:00,
2013-02-05 13:45:00,43.2,28.1,29.50,WSW,240,4.0,11.0,55,0.00,,,0.07,146.0,WUHU216DAVISVP2,2013-02-05 13:45:00,
2013-02-05 13:50:00,43.5,28.9,29.49,NE,43,4.0,11.0,56,0.00,,,0.07,429.0,WUHU216DAVISVP2,2013-02-05 13:50:00,
2013-02-05 13:55:00,44.0,28.4,29.49,SSW,205,4.0,10.0,54,0.00,,,0.07,374.0,WUHU216DAVISVP2,2013-02-05 13:55:00,
2013-02-05 14:00:00,44.3,28.2,29.49,NNE,25,6.0,12.0,53,0.00,,,0.07,271.0,WUHU216DAVISVP2,2013-02-05 14:00:00,
2013-02-05 14:05:00,43.9,28.8,29.49,WNW,296,2.0,12.0,55,0.00,,,0.07,350.0,WUHU216DAVISVP2,2013-02-05 14:05:00,
2013-02-05 14:10:00,44.5,30.3,29.49,SSW,206,3.0,12.0,57,0.00,,,0.07,380.0,WUHU216DAVISVP2,2013-02-05 14:10:00,
2013-02-05 14:15:00,45.0,28.9,29.49,SW,221,4.0,12.0,53,0.00,,,0.07,432.0,WUHU216DAVISVP2,2013-02-05 14:15:00,
2013-02-05 14:20:00,45.2,28.6,29.49,SW,217,2.0,11.0,52,0.00,,,0.07,109.0,WUHU216DAVISVP2,2013-02-05 14:20:00,
2013-02-05 14:25:00,44.0,27.5,29.49,SSW,205,2.0,11.0,52,0.00,,,0.07,60.0,WUHU216DAVISVP2,2013-02-05 14:25:00,
2013-02-05 14:30:00,42.8,27.8,29.49,NW,310,2.0,9.0,55,0.00,,,0.07,86.0,WUHU216DAVISVP2,2013-02-05 14:30:00,
2013-02-05 14:35:00,42.1,28.4,29.48,SE,134,1.0,9.0,58,0.00,,,0.07,91.0,WUHU216DAVISVP2,2013-02-05 14:35:00,
2013-02-05 14:40:00,41.8,27.7,29.48,WSW,242,1.0,11.0,57,0.00,,,0.07,188.0,WUHU216DAVISVP2,2013-02-05 14:40:00,
2013-02-05 14:45:00,42.2,28.5,29.48,SW,236,4.0,11.0,58,0.00,,,0.07,260.0,WUHU216DAVISVP2,2013-02-05 14:45:00,
2013-02-05 14:50:00,42.4,28.7,29.48,SE,127,4.0,11.0,58,0.00,,,0.07,98.0,WUHU216DAVISVP2,2013-02-05 14:50:00,
2013-02-05 14:55:00,42.2,28.1,29.47,WNW,287,2.0,11.0,57,0.00,,,0.07,104.0,WUHU216DAVISVP2,2013-02-05 14:55:00,
2013-02-05 15:00:00,41.9,28.2,29.47,West,263,1.0,8.0,58,0.00,,,0.07,113.0,WUHU216DAVISVP2,2013-02-05 15:00:00,
2013-02-05 15:05:00,41.8,28.2,29.47,West,267,5.0,9.0,58,0.00,,,0.07,109.0,WUHU216DAVISVP2,2013-02-05 15:05:00,
2013-02-05 15:10:00,41.6,28.4,29.46,SSW,198,2.0,9.0,59,0.00,,,0.07,77.0,WUHU216DAVISVP2,2013-02-05 15:10:00,
2013-02-05 15:15:00,41.5,28.2,29.46,SSW,196,3.0,9.0,59,0.00,,,0.07,70.0,WUHU216DAVISVP2,2013-02-05 15:15:00,
2013-02-05 15:20:00,41.3,28.5,29.46,NW,323,2.0,9.0,60,0.00,,,0.07,54.0,WUHU216DAVISVP2,2013-02-05 15:20:00,
2013-02-05 15:25:00,41.1,28.7,29.46,South,171,2.0,9.0,61,0.00,,,0.07,51.0,WUHU216DAVISVP2,2013-02-05 15:25:00,
2013-02-05 15:30:00,40.9,28.6,29.46,ESE,111,5.0,10.0,61,0.00,,,0.07,28.0,WUHU216DAVISVP2,2013-02-05 15:30:00,
2013-02-05 15:35:00,40.7,28.4,29.45,NNW,327,5.0,10.0,61,0.00,,,0.07,21.0,WUHU216DAVISVP2,2013-02-05 15:35:00,
2013-02-05 15:40:00,40.5,28.6,29.45,South,175,0.0,10.0,62,0.00,,,0.07,19.0,WUHU216DAVISVP2,2013-02-05 15:40:00,
2013-02-05 15:45:00,40.4,28.4,29.44,SW,227,1.0,10.0,62,0.00,,,0.07,23.0,WUHU216DAVISVP2,2013-02-05 15:45:00,
2013-02-05 15:50:00,40.3,28.8,29.44,NNW,334,0.0,7.0,63,0.00,,,0.07,26.0,WUHU216DAVISVP2,2013-02-05 15:50:00,
2013-02-05 15:55:00,40.2,28.7,29.44,West,278,0.0,7.0,63,0.00,,,0.07,23.0,WUHU216DAVISVP2,2013-02-05 15:55:00,
2013-02-05 16:00:00,40.1,28.2,29.43,NW,317,1.0,7.0,62,0.00,,,0.07,19.0,WUHU216DAVISVP2,2013-02-05 16:00:00,
2013-02-05 16:05:00,40.1,28.6,29.43,West,279,2.0,7.0,63,0.00,,,0.07,25.0,WUHU216DAVISVP2,2013-02-05 16:05:00,
2013-02-05 16:10:00,40.1,28.6,29.43,SSE,160,2.0,9.0,63,0.00,,,0.07,21.0,WUHU216DAVISVP2,2013-02-05 16:10:00,
2013-02-05 16:16:00,40.1,29.0,29.43,NW,308,2.0,9.0,64,0.00,,,0.07,11.0,WUHU216DAVISVP2,2013-02-05 16:16:00,
2013-02-05 16:21:00,40.1,29.0,29.43,WSW,246,5.0,9.0,64,0.00,,,0.07,9.0,WUHU216DAVISVP2,2013-02-05 16:21:00,
2013-02-05 16:26:00,40.1,28.6,29.43,South,170,1.0,9.0,63,0.00,,,0.07,0.0,WUHU216DAVISVP2,2013-02-05 16:26:00,
2013-02-05 16:31:00,40.1,28.2,29.43,NNW,340,1.0,9.0,62,0.00,,,0.07,0.0,WUHU216DAVISVP2,2013-02-05 16:31:00,
2013-02-05 16:36:00,40.1,28.2,29.43,West,263,0.0,8.0,62,0.00,,,0.07,0.0,WUHU216DAVISVP2,2013-02-05 16:36:00,
2013-02-05 16:41:00,40.1,28.6,29.43,WSW,247,1.0,11.0,63,0.00,,,0.07,0.0,WUHU216DAVISVP2,2013-02-05 16:41:00,
2013-02-05 16:46:00,40.1,28.6,29.43,North,5,2.0,11.0,63,0.00,,,0.07,0.0,WUHU216DAVISVP2,2013-02-05 16:46:00,
2013-02-05 16:51:00,40.1,28.6,29.42,WSW,242,1.0,11.0,63,0.00,,,0.07,0.0,WUHU216DAVISVP2,2013-02-05 16:51:00,
2013-02-05 16:56:00,40.1,28.6,29.41,North,5,4.0,11.0,63,0.00,,,0.07,0.0,WUHU216DAVISVP2,2013-02-05 16:56:00,
2013-02-05 17:01:00,40.1,29.0,29.41,SSW,201,0.0,9.0,64,0.00,,,0.07,0.0,WUHU216DAVISVP2,2013-02-05 17:01:00,
2013-02-05 17:06:00,40.0,28.9,29.41,NW,324,3.0,9.0,64,0.00,,,0.07,0.0,WUHU216DAVISVP2,2013-02-05 17:06:00,
2013-02-05 17:11:00,40.0,29.3,29.41,NNW,342,5.0,9.0,65,0.00,,,0.07,0.0,WUHU216DAVISVP2,2013-02-05 17:11:00,
2013-02-05 17:16:00,39.9,29.5,29.41,North,5,0.0,9.0,66,0.00,,,0.07,0.0,WUHU216DAVISVP2,2013-02-05 17:16:00,
2013-02-05 17:21:00,39.8,29.8,29.41,NW,310,1.0,9.0,67,0.00,,,0.07,0.0,WUHU216DAVISVP2,2013-02-05 17:21:00,
2013-02-05 17:26:00,39.8,29.8,29.41,WNW,284,6.0,9.0,67,0.00,,,0.07,0.0,WUHU216DAVISVP2,2013-02-05 17:26:00,
2013-02-05 17:31:00,39.7,30.1,29.41,West,273,2.0,9.0,68,0.00,,,0.07,0.0,WUHU216DAVISVP2,2013-02-05 17:31:00,
2013-02-05 17:36:00,39.7,30.4,29.40,NNW,347,0.0,7.0,69,0.00,,,0.07,0.0,WUHU216DAVISVP2,2013-02-05 17:36:00,
2013-02-05 17:41:00,39.7,30.4,29.39,West,275,0.0,7.0,69,0.00,,,0.07,0.0,WUHU216DAVISVP2,2013-02-05 17:41:00,
2013-02-05 17:46:00,39.8,30.9,29.39,West,261,6.0,8.0,70,0.00,,,0.07,0.0,WUHU216DAVISVP2,2013-02-05 17:46:00,
2013-02-05 17:51:00,39.8,31.2,29.39,NNW,342,0.0,10.0,71,0.00,,,0.07,0.0,WUHU216DAVISVP2,2013-02-05 17:51:00,
2013-02-05 17:56:00,39.9,31.6,29.38,SSW,210,1.0,10.0,72,0.00,,,0.07,0.0,WUHU216DAVISVP2,2013-02-05 17:56:00,
2013-02-05 18:01:00,39.9,32.3,29.38,North,360,2.0,10.0,74,0.00,,,0.07,0.0,WUHU216DAVISVP2,2013-02-05 18:01:00,
2013-02-05 18:06:00,39.8,33.2,29.38,NW,314,1.0,10.0,77,0.00,,,0.07,0.0,WUHU216DAVISVP2,2013-02-05 18:06:00,
2013-02-05 18:11:00,39.5,33.5,29.38,NNW,336,1.0,8.0,79,0.00,,,0.07,0.0,WUHU216DAVISVP2,2013-02-05 18:11:00,
2013-02-05 18:16:00,39.3,34.3,29.37,NW,316,2.0,11.0,82,0.01,,,0.08,0.0,WUHU216DAVISVP2,2013-02-05 18:16:00,
2013-02-05 18:21:00,39.2,34.5,29.37,North,360,1.0,11.0,83,0.01,,,0.08,0.0,WUHU216DAVISVP2,2013-02-05 18:21:00,
2013-02-05 18:26:00,39.2,34.8,29.37,WNW,296,3.0,11.0,84,0.01,,,0.08,0.0,WUHU216DAVISVP2,2013-02-05 18:26:00,
2013-02-05 18:31:00,39.3,34.6,29.37,NNW,344,6.0,11.0,83,0.01,,,0.08,0.0,WUHU216DAVISVP2,2013-02-05 18:31:00,
2013-02-05 18:36:00,39.6,34.9,29.37,SSW,205,1.0,11.0,83,0.01,,,0.08,0.0,WUHU216DAVISVP2,2013-02-05 18:36:00,
2013-02-05 18:41:00,39.8,35.1,29.36,SSW,201,3.0,10.0,83,0.01,,,0.08,0.0,WUHU216DAVISVP2,2013-02-05 18:41:00,
2013-02-05 18:46:00,40.0,35.2,29.37,NW,323,7.0,13.0,83,0.01,,,0.08,0.0,WUHU216DAVISVP2,2013-02-05 18:46:00,
2013-02-05 18:51:00,40.4,35.3,29.37,WNW,302,1.0,13.0,82,0.01,,,0.08,0.0,WUHU216DAVISVP2,2013-02-05 18:51:00,
2013-02-05 18:56:00,40.5,35.1,29.36,SW,224,4.0,13.0,81,0.01,,,0.08,0.0,WUHU216DAVISVP2,2013-02-05 18:56:00,
2013-02-05 19:01:00,40.7,35.3,29.36,NE,44,7.0,13.0,81,0.01,,,0.08,0.0,WUHU216DAVISVP2,2013-02-05 19:01:00,
2013-02-05 19:06:00,40.9,35.5,29.36,North,350,1.0,9.0,81,0.01,,,0.08,0.0,WUHU216DAVISVP2,2013-02-05 19:06:00,
2013-02-05 19:11:00,41.1,35.7,29.36,WNW,284,0.0,9.0,81,0.01,,,0.08,0.0,WUHU216DAVISVP2,2013-02-05 19:11:00,
2013-02-05 19:16:00,41.2,35.8,29.36,West,259,3.0,9.0,81,0.00,,,0.08,0.0,WUHU216DAVISVP2,2013-02-05 19:16:00,
2013-02-05 19:21:00,41.3,35.9,29.36,West,262,5.0,9.0,81,0.00,,,0.08,0.0,WUHU216DAVISVP2,2013-02-05 19:21:00,
2013-02-05 19:26:00,41.4,35.7,29.36,SSW,210,5.0,11.0,80,0.00,,,0.08,0.0,WUHU216DAVISVP2,2013-02-05 19:26:00,
2013-02-05 19:31:00,41.5,35.8,29.35,WNW,292,0.0,11.0,80,0.00,,,0.08,0.0,WUHU216DAVISVP2,2013-02-05 19:31:00,
2013-02-05 19:36:00,41.6,35.9,29.36,NW,317,4.0,11.0,80,0.00,,,0.08,0.0,WUHU216DAVISVP2,2013-02-05 19:36:00,
2013-02-05 19:41:00,41.7,36.0,29.36,NW,325,2.0,11.0,80,0.00,,,0.08,0.0,WUHU216DAVISVP2,2013-02-05 19:41:00,
2013-02-05 19:46:00,41.7,36.3,29.35,NNE,25,1.0,11.0,81,0.00,,,0.08,0.0,WUHU216DAVISVP2,2013-02-05 19:46:00,
2013-02-05 19:51:00,41.6,36.2,29.35,SSE,159,5.0,8.0,81,0.00,,,0.08,0.0,WUHU216DAVISVP2,2013-02-05 19:51:00,
2013-02-05 19:56:00,41.7,36.3,29.35,SW,219,4.0,8.0,81,0.00,,,0.08,0.0,WUHU216DAVISVP2,2013-02-05 19:56:00,
2013-02-05 20:01:00,41.7,36.3,29.35,NNE,15,2.0,8.0,81,0.00,,,0.08,0.0,WUHU216DAVISVP2,2013-02-05 20:01:00,
2013-02-05 20:06:00,41.7,36.3,29.35,North,351,0.0,7.0,81,0.00,,,0.08,0.0,WUHU216DAVISVP2,2013-02-05 20:06:00,
2013-02-05 20:11:00,41.8,36.7,29.35,NNW,340,0.0,7.0,82,0.00,,,0.08,0.0,WUHU216DAVISVP2,2013-02-05 20:11:00,
2013-02-05 20:16:00,41.8,36.7,29.34,South,190,1.0,8.0,82,0.00,,,0.08,0.0,WUHU216DAVISVP2,2013-02-05 20:16:00,
2013-02-05 20:21:00,41.9,36.5,29.34,West,275,1.0,9.0,81,0.00,,,0.08,0.0,WUHU216DAVISVP2,2013-02-05 20:21:00,
2013-02-05 20:26:00,42.0,36.9,29.34,North,350,1.0,9.0,82,0.00,,,0.08,0.0,WUHU216DAVISVP2,2013-02-05 20:26:00,
2013-02-05 20:31:00,41.9,36.8,29.34,West,276,4.0,11.0,82,0.00,,,0.08,0.0,WUHU216DAVISVP2,2013-02-05 20:31:00,
2013-02-05 20:36:00,41.8,37.0,29.34,NW,312,0.0,11.0,83,0.00,,,0.08,0.0,WUHU216DAVISVP2,2013-02-05 20:36:00,
2013-02-05 20:41:00,41.6,36.8,29.34,WSW,240,2.0,11.0,83,0.00,,,0.08,0.0,WUHU216DAVISVP2,2013-02-05 20:41:00,
2013-02-05 20:46:00,41.5,36.7,29.34,WSW,251,0.0,11.0,83,0.00,,,0.08,0.0,WUHU216DAVISVP2,2013-02-05 20:46:00,
2013-02-05 20:51:00,41.5,37.0,29.34,WNW,284,0.0,11.0,84,0.00,,,0.08,0.0,WUHU216DAVISVP2,2013-02-05 20:51:00,
2013-02-05 20:56:00,41.5,37.0,29.34,South,184,6.0,11.0,84,0.00,,,0.08,0.0,WUHU216DAVISVP2,2013-02-05 20:56:00,
2013-02-05 21:01:00,41.5,37.0,29.34,SW,218,5.0,11.0,84,0.00,,,0.08,0.0,WUHU216DAVISVP2,2013-02-05 21:01:00,
2013-02-05 21:06:00,41.5,36.7,29.34,North,360,1.0,10.0,83,0.00,,,0.08,0.0,WUHU216DAVISVP2,2013-02-05 21:06:00,
2013-02-05 21:11:00,41.5,36.7,29.34,South,172,6.0,10.0,83,0.00,,,0.08,0.0,WUHU216DAVISVP2,2013-02-05 21:11:00,
2013-02-05 21:16:00,41.5,36.7,29.34,SW,226,5.0,8.0,83,0.00,,,0.08,0.0,WUHU216DAVISVP2,2013-02-05 21:16:00,
2013-02-05 21:21:00,41.5,36.7,29.34,SSW,210,1.0,9.0,83,0.00,,,0.08,0.0,WUHU216DAVISVP2,2013-02-05 21:21:00,
2013-02-05 21:26:00,41.5,36.7,29.34,West,275,2.0,9.0,83,0.00,,,0.08,0.0,WUHU216DAVISVP2,2013-02-05 21:26:00,
2013-02-05 21:31:00,41.6,36.8,29.34,West,270,7.0,10.0,83,0.00,,,0.08,0.0,WUHU216DAVISVP2,2013-02-05 21:31:00,
2013-02-05 21:36:00,41.6,36.8,29.34,West,270,2.0,10.0,83,0.00,,,0.08,0.0,WUHU216DAVISVP2,2013-02-05 21:36:00,
2013-02-05 21:41:00,41.5,36.7,29.34,West,268,1.0,10.0,83,0.00,,,0.08,0.0,WUHU216DAVISVP2,2013-02-05 21:41:00,
2013-02-05 21:46:00,41.6,36.8,29.34,SSW,202,4.0,10.0,83,0.00,,,0.08,0.0,WUHU216DAVISVP2,2013-02-05 21:46:00,
2013-02-05 21:51:00,41.6,36.8,29.34,South,181,4.0,10.0,83,0.00,,,0.08,0.0,WUHU216DAVISVP2,2013-02-05 21:51:00,
2013-02-05 21:56:00,41.6,36.8,29.34,WNW,300,2.0,10.0,83,0.00,,,0.08,0.0,WUHU216DAVISVP2,2013-02-05 21:56:00,
2013-02-05 22:01:00,41.5,36.7,29.34,WSW,243,4.0,10.0,83,0.00,,,0.08,0.0,WUHU216DAVISVP2,2013-02-05 22:01:00,
2013-02-05 22:06:00,41.6,36.8,29.34,WSW,240,4.0,11.0,83,0.00,,,0.08,0.0,WUHU216DAVISVP2,2013-02-05 22:06:00,
2013-02-05 22:11:00,41.7,36.9,29.34,SW,219,3.0,11.0,83,0.00,,,0.08,0.0,WUHU216DAVISVP2,2013-02-05 22:11:00,
2013-02-05 22:16:00,41.7,36.9,29.34,SSW,192,1.0,11.0,83,0.00,,,0.08,0.0,WUHU216DAVISVP2,2013-02-05 22:16:00,
2013-02-05 22:21:00,41.7,37.2,29.35,NNW,328,5.0,11.0,84,0.00,,,0.08,0.0,WUHU216DAVISVP2,2013-02-05 22:21:00,
2013-02-05 22:26:00,41.7,37.2,29.34,SSW,199,0.0,10.0,84,0.00,,,0.08,0.0,WUHU216DAVISVP2,2013-02-05 22:26:00,
2013-02-05 22:31:00,41.7,37.2,29.34,South,188,0.0,10.0,84,0.00,,,0.08,0.0,WUHU216DAVISVP2,2013-02-05 22:31:00,
2013-02-05 22:36:00,41.7,37.2,29.35,SSW,195,3.0,10.0,84,0.00,,,0.08,0.0,WUHU216DAVISVP2,2013-02-05 22:36:00,
2013-02-05 22:41:00,41.7,37.2,29.35,NW,326,2.0,13.0,84,0.00,,,0.08,0.0,WUHU216DAVISVP2,2013-02-05 22:41:00,
2013-02-05 22:46:00,41.8,37.3,29.35,SE,146,12.0,13.0,84,0.00,,,0.08,0.0,WUHU216DAVISVP2,2013-02-05 22:46:00,
2013-02-05 22:51:00,41.8,37.6,29.35,South,184,4.0,13.0,85,0.00,,,0.08,0.0,WUHU216DAVISVP2,2013-02-05 22:51:00,
2013-02-05 22:56:00,41.7,37.8,29.35,SW,214,7.0,13.0,86,0.00,,,0.08,0.0,WUHU216DAVISVP2,2013-02-05 22:56:00,
2013-02-05 23:01:00,41.5,37.6,29.35,West,279,2.0,12.0,86,0.00,,,0.08,0.0,WUHU216DAVISVP2,2013-02-05 23:01:00,
2013-02-05 23:06:00,41.4,37.8,29.35,SW,232,5.0,13.0,87,0.00,,,0.08,0.0,WUHU216DAVISVP2,2013-02-05 23:06:00,
2013-02-05 23:11:00,41.4,37.8,29.35,ESE,123,2.0,13.0,87,0.00,,,0.08,0.0,WUHU216DAVISVP2,2013-02-05 23:11:00,
2013-02-05 23:16:00,41.3,37.7,29.35,SSW,196,1.0,13.0,87,0.00,,,0.08,0.0,WUHU216DAVISVP2,2013-02-05 23:16:00,
2013-02-05 23:21:00,41.3,37.7,29.35,East,81,2.0,13.0,87,0.01,,,0.09,0.0,WUHU216DAVISVP2,2013-02-05 23:21:00,
2013-02-05 23:26:00,41.3,37.7,29.36,SSE,161,6.0,10.0,87,0.01,,,0.09,0.0,WUHU216DAVISVP2,2013-02-05 23:26:00,
2013-02-05 23:31:00,41.3,37.7,29.36,South,182,4.0,11.0,87,0.01,,,0.09,0.0,WUHU216DAVISVP2,2013-02-05 23:31:00,
2013-02-05 23:36:00,41.3,37.7,29.37,SSW,211,6.0,11.0,87,0.01,,,0.09,0.0,WUHU216DAVISVP2,2013-02-05 23:36:00,
2013-02-05 23:41:00,41.3,37.7,29.36,South,185,2.0,13.0,87,0.01,,,0.09,0.0,WUHU216DAVISVP2,2013-02-05 23:41:00,
2013-02-05 23:46:00,41.2,37.6,29.36,South,171,1.0,14.0,87,0.01,,,0.09,0.0,WUHU216DAVISVP2,2013-02-05 23:46:00,
2013-02-05 23:51:00,41.1,37.5,29.37,WSW,249,3.0,14.0,87,0.01,,,0.09,0.0,WUHU216DAVISVP2,2013-02-05 23:51:00,
2013-02-05 23:56:00,41.1,37.8,29.37,ESE,112,1.0,14.0,88,0.01,,,0.09,0.0,WUHU216DAVISVP2,2013-02-05 23:56:00,